This is the latest recevied weather packets stored in our database for station/object KE5YIM-13. If no packets are shown the sender has not sent any weather packets the latest 10 day(s).
| Time | Temp. | Humidity | Pressure | Rain* | Wind** | Luminosity | Snow |
|---|---|---|---|---|---|---|---|
| 1777548730 | 8.89° C | 99% | 1009.3 hPa | 1.27 mm | - | 37 W/m² | - |
| 1777548428 | 8.89° C | 99% | 1009.3 hPa | 1.27 mm | - | 30 W/m² | - |
| 1777548124 | 8.89° C | 99% | 1009.4 hPa | 0 mm | - | 25 W/m² | - |
| 1777547820 | 8.89° C | 99% | 1009.5 hPa | 0 mm | - | 26 W/m² | - |
| 1777547516 | 8.89° C | 99% | 1009.3 hPa | 0 mm | - | 27 W/m² | - |
| 1777547214 | 8.89° C | 99% | 1009.4 hPa | 1.78 mm | - | 28 W/m² | - |
| 1777546911 | 8.89° C | 99% | 1009.3 hPa | 1.78 mm | - | 20 W/m² | - |
| 1777546608 | 8.89° C | 99% | 1009.1 hPa | 1.27 mm | - | 14 W/m² | - |
| 1777546304 | 8.89° C | 99% | 1009.2 hPa | 1.27 mm | - | 16 W/m² | - |
| 1777546002 | 8.89° C | 99% | 1009.1 hPa | 0 mm | - | 10 W/m² | - |
| 1777545698 | 8.89° C | 99% | 1009.2 hPa | 0 mm | - | 7 W/m² | - |
| 1777545395 | 8.89° C | 99% | 1008.9 hPa | 0 mm | - | 4 W/m² | - |
| 1777545092 | 8.89° C | 99% | 1008.9 hPa | 0 mm | - | 5 W/m² | - |
| 1777544789 | 8.89° C | 99% | 1008.9 hPa | 0 mm | - | 4 W/m² | - |
| 1777544485 | 8.33° C | 99% | 1008.9 hPa | 1.78 mm | - | 4 W/m² | - |
| 1777544181 | 8.33° C | 99% | 1008.9 hPa | 1.78 mm | - | 3 W/m² | - |
| 1777543879 | 8.89° C | 99% | 1008.6 hPa | 0 mm | - | 2 W/m² | - |
| 1777543575 | 8.89° C | 99% | 1008.7 hPa | 0 mm | - | 2 W/m² | - |
| 1777543271 | 8.89° C | 99% | 1008.7 hPa | 1.27 mm | - | 1 W/m² | - |
| 1777542967 | 8.89° C | 98% | 1008.7 hPa | 1.27 mm | - | 1 W/m² | - |
| 1777542664 | 8.89° C | 98% | 1008.6 hPa | 0 mm | - | 0 W/m² | - |
| 1777542360 | 8.89° C | 98% | 1008.6 hPa | 1.78 mm | - | 0 W/m² | - |
| 1777542057 | 8.89° C | 98% | 1008.7 hPa | 1.78 mm | - | 0 W/m² | - |
| 1777541754 | 8.89° C | 98% | 1008.6 hPa | 0 mm | - | 0 W/m² | - |
| 1777541451 | 8.89° C | 98% | 1008.9 hPa | 1.27 mm | - | 0 W/m² | - |
* Rain latest hour (hover to see other rain measurements)
** Current wind speed in m/s (hover to see current wind gust speed)